Weather History for Buffalo, WY

Change the Weather History Date:

Monday, December 10, 2012

  Actual Average Record
Temperature  
Mean Temperature 23 °F 25 °F  
Max Temperature 29 °F 36 °F 50 °F (2006)
Min Temperature 17 °F 15 °F -4 °F (2000)
Degree Days  
Heating Degree Days 42 40  
Month to date heating degree days 312 388  
Since 1 July heating degree days 1869 2222  
Cooling Degree Days 0 0  
Month to date cooling degree days 0 0  
Year to date cooling degree days 795 492  
Moisture  
Dew Point 14 °F    
Average Humidity 60    
Maximum Humidity 84    
Minimum Humidity 35    
Precipitation  
Precipitation T in 0.01 in 0.07 in (2000)
Month to date precipitation 0.01 0.17  
Year to date precipitation 8.83 13.22  
Sea Level Pressure  
Sea Level Pressure 29.90 in    
Wind  
Wind Speed 12 mph (NW)    
Max Wind Speed 30 mph    
Max Gust Speed 40 mph    
Visibility 8 miles    
Events Snow    
T = Trace of Precipitation, MM = Missing Value Source: NWS Daily Summary

Daily Weather History Graph

Daily Weather History Graph

Search for Another Location

Airport:

Trip Planner

Search our weather history database for the weather conditions in past years. The results will help you decide how hot, cold, wet, or windy it might be!

Date:

Astronomy

Dec. 10, 2012 Rise Set
Actual Time 7:32 AM MST 4:27 PM MST
Civil Twilight 6:59 AM MST 5:00 PM MST
Nautical Twilight 6:22 AM MST 5:37 PM MST
Astronomical Twilight 5:47 AM MST 6:12 PM MST
Moon 4:14 AM MST (12/10) 2:22 PM MST (12/10)
Length of Visible Light 10h 01m
Length of Day
8h 54m
Waning Crescent, 10% of the Moon is Illuminated
Dec 10
Waning Crescent
Dec 13
New
Dec 19
First Quarter
Dec 28
Full
Jan 4
Last Quarter

Hourly Weather History & Observations

Time (MST) Temp. Windchill Dew Point Humidity Pressure Visibility Wind Dir Wind Speed Gust Speed Precip Events Conditions
12:53 AM 21.9 °F 12.5 °F 1.9 °F 42% 29.95 in 10.0 mi South 8.1 mph - N/A   Overcast
1:53 AM 21.9 °F 14.5 °F -0.0 °F 38% 29.94 in 10.0 mi South 5.8 mph - N/A   Overcast
2:53 AM 23.0 °F 13.9 °F -0.0 °F 37% 29.91 in 10.0 mi South 8.1 mph - N/A   Overcast
3:53 AM 25.0 °F 19.3 °F -0.0 °F 34% 29.91 in 10.0 mi SSE 4.6 mph - N/A   Overcast
4:53 AM 25.0 °F 20.7 °F 3.9 °F 41% 29.92 in 10.0 mi ESE 3.5 mph - N/A   Overcast
5:41 AM 24.8 °F - 8.6 °F 50% 29.79 in 8.0 mi Calm Calm - 0.00 in Snow Light Snow
5:53 AM 24.1 °F - 10.0 °F 55% 29.95 in 6.0 mi Calm Calm - 0.00 in Snow Light Snow
6:06 AM 24.8 °F - 14.0 °F 64% 29.80 in 1.8 mi Calm Calm - 0.00 in Snow Light Snow
6:26 AM 21.2 °F 16.4 °F 15.8 °F 80% 29.79 in 2.5 mi South 3.5 mph - 0.00 in Snow Light Snow
6:35 AM 19.4 °F 14.3 °F 15.8 °F 86% 29.80 in 3.0 mi WSW 3.5 mph - 0.00 in Snow Light Snow
6:53 AM 21.0 °F 12.4 °F 17.1 °F 85% 29.96 in 6.0 mi South 6.9 mph - 0.00 in Snow Light Snow
7:53 AM 23.0 °F - 17.1 °F 78% 29.97 in 10.0 mi Calm Calm - 0.00 in   Overcast
8:53 AM 28.0 °F 18.1 °F 17.1 °F 63% 29.93 in 10.0 mi NNW 11.5 mph - N/A   Overcast
9:23 AM 26.6 °F 12.7 °F 17.6 °F 69% 29.81 in 5.0 mi NW 20.7 mph 25.3 mph 0.00 in Snow Light Snow
9:50 AM 28.4 °F 13.5 °F 17.6 °F 64% 29.82 in 10.0 mi NNW 26.5 mph 35.7 mph 0.00 in   Overcast
9:53 AM 28.0 °F 13.0 °F 18.0 °F 66% 29.94 in 10.0 mi NNW 26.5 mph 38.0 mph 0.00 in   Overcast
10:18 AM 28.4 °F 15.1 °F 21.2 °F 74% 29.83 in 1.8 mi NW 20.7 mph 27.6 mph 0.00 in Snow Light Snow
10:32 AM 26.6 °F 12.7 °F 21.2 °F 80% 29.83 in 3.0 mi NNW 20.7 mph 36.8 mph 0.00 in Snow Light Snow
10:53 AM 28.0 °F 14.3 °F 21.0 °F 75% 29.95 in 4.0 mi NNW 21.9 mph 36.8 mph 0.00 in Snow Light Snow
11:18 AM 26.6 °F 12.7 °F 21.2 °F 80% 29.83 in 1.8 mi NNW 20.7 mph 34.5 mph 0.00 in Snow Light Snow
11:28 AM 26.6 °F 11.4 °F 19.4 °F 74% 29.83 in 3.0 mi NNW 25.3 mph 36.8 mph 0.00 in Snow Light Snow
11:53 AM 28.0 °F 12.8 °F 19.0 °F 69% 29.94 in 8.0 mi NNW 27.6 mph 40.3 mph 0.00 in Snow Light Snow
12:53 PM 27.0 °F 12.8 °F 19.9 °F 75% 29.93 in 8.0 mi NNW 21.9 mph 32.2 mph 0.00 in Snow Light Snow
1:09 PM 26.6 °F 12.4 °F 19.4 °F 74% 29.82 in 10.0 mi NNW 21.9 mph 35.7 mph 0.00 in   Scattered Clouds
1:53 PM 26.1 °F 12.0 °F 19.9 °F 78% 29.94 in 7.0 mi NNW 20.7 mph 35.7 mph 0.00 in   Scattered Clouds
2:00 PM 26.6 °F 11.4 °F 19.4 °F 74% 29.82 in 8.0 mi NNW 25.3 mph 35.7 mph 0.00 in Snow Light Snow
2:10 PM 26.6 °F 13.4 °F 19.4 °F 74% 29.83 in 5.0 mi NNW 18.4 mph 29.9 mph 0.00 in Snow Light Snow
2:20 PM 26.6 °F 13.1 °F 19.4 °F 74% 29.83 in 9.0 mi NNW 19.6 mph 26.5 mph 0.00 in   Scattered Clouds
2:53 PM 26.1 °F 11.6 °F 16.0 °F 66% 29.95 in 10.0 mi NNW 21.9 mph 40.3 mph 0.00 in   Partly Cloudy
3:53 PM 25.0 °F 11.3 °F 17.1 °F 72% 29.97 in 10.0 mi NNW 18.4 mph 25.3 mph N/A   Mostly Cloudy
4:53 PM 24.1 °F 13.1 °F 12.9 °F 62% 29.97 in 10.0 mi NW 11.5 mph - N/A   Clear
5:53 PM 21.9 °F 11.7 °F 9.0 °F 58% 29.99 in 10.0 mi NW 9.2 mph - N/A   Clear
6:53 PM 23.0 °F 12.4 °F 7.0 °F 50% 30.00 in 10.0 mi NW 10.4 mph 16.1 mph N/A   Clear
7:53 PM 23.0 °F - 8.1 °F 53% 29.99 in 10.0 mi Calm Calm - N/A   Partly Cloudy
8:53 PM 19.0 °F 13.9 °F 6.1 °F 57% 29.98 in 10.0 mi WSW 3.5 mph - N/A   Partly Cloudy
9:53 PM 23.0 °F 10.6 °F 7.0 °F 50% 29.98 in 10.0 mi NNW 13.8 mph 23.0 mph N/A   Mostly Cloudy
10:53 PM 25.0 °F 13.1 °F 10.0 °F 53% 29.97 in 10.0 mi NW 13.8 mph - N/A   Mostly Cloudy
11:53 PM 21.9 °F 11.0 °F 7.0 °F 53% 29.98 in 10.0 mi West 10.4 mph - N/A   Mostly Cloudy